SCP
0 0 0 0 -0 0 0 -0 0 0 0 0 0 0 0 0 0 -0 -0 -0 -0 -0 -0 -0 -0 -0 -0 -0 -0 -0 -0 -0
0 0 0 0 -0 -0 -0 -0 0 0 0 0 0 0 0 0 -0 -0 -0 -0 -0 -0 -0 -0 -0 -0 -0 -0 -0 -0 -0 -0
0 0 -0 0 -0 -0 0 -0 0 0 0 0 0 0 1 0 0 -0 -0 -0 -0 -0 -0 -0 -0 -0 -0 -0 -0 -0 -0 -0
0 0 -0 0 0 0 -0 -0 -0 0 0 0 0 1 1 0 0 -0 -0 -0 -0 -0 -0 -0 -0 -0 -0 -0 -0 -0 -0 -0
-0 -0 0 0 0 0 0 -0 -0 0 0 0 0 1 1 1 0 -0 -0 -0 -0 -0 -0 -0 -0 -0 -0 -0 -0 -0 -0 -0
-0 -0 -0 0 0 0 0 -0 0 0 0 0 0 1 1 1 0 -0 -0 -0 -0 -0 -0 -0 -0 -0 -0 -0 -0 -0 -0 -0
-0 -0 -0 -0 0 0 0 0 -0 0 0 0 -0 0 1 0 0 0 -0 -0 -0 -0 -0 -0 -0 -0 -0 -0 -0 -0 -0 -0
-0 -0 -0 0 0 0 0 0 0 0 0 0 -0 0 0 0 0 0 -0 -0 -0 -0 -0 -0 0 -0 -0 -0 -0 -0 -0 -0
-0 -0 -0 -0 0 0 -0 0 0 0 0 0 -0 -0 -0 -0 -0 -0 -0 -0 -0 -0 -0 -0 -0 -0 -0 -0 -0 -0 -0 -0
-0 -0 -0 -0 -0 -0 0 0 0 0 0 -0 -0 -0 -0 -0 -0 -0 -0 -0 -0 -0 -0 -0 -0 -0 -0 -0 -0 -0 -0 -0
-0 -0 -0 -0 -0 -0 0 0 -0 0 0 0 -0 -0 -0 -0 -0 -0 -0 -0 -0 -0 -0 -0 -0 -0 -0 -0 -0 -0 -0 -0
-0 -0 -0 -0 0 0 -0 -0 -0 0 0 0 -0 -1 -0 -0 -0 -0 -0 -0 -0 -0 -0 -0 -0 -0 -0 -0 -0 -0 0 -0
0 0 0 0 0 0 0 -0 -0 0 -0 0 -0 -0 -0 -0 -0 -0 -0 -0 -0 -0 -0 -0 -0 -0 -0 -0 -0 -0 0 -0
0 0 0 0 0 0 0 0 -0 -0 -0 -0 -0 -0 -0 -0 -0 -0 -0 -0 -0 -0 -0 -0 -0 -0 -0 -0 -0 0 0 0
0 0 0 0 0 0 0 0 0 -0 -0 -0 -0 -0 -0 -0 -0 -0 -0 -0 -0 -0 -0 -0 -0 -0 -0 -0 0 0 0 0
0 0 0 0 0 0 0 0 0 0 0 0 -0 -0 -0 -0 -0 -0 -0 -0 -1 -0 -0 0 0 0 0 0 0 0 0 0
0 0 0 0 0 0 0 0 0 0 0 -0 0 -0 0 -0 -0 -0 -0 -1 -1 -0 -0 1 0 0 0 0 0 0 1 1
0 0 0 0 0 0 0 0 0 0 0 0 0 0 0 -0 0 -0 -0 -1 -1 0 1 1 1 1 1 1 1 1 1 1
0 0 0 0 0 0 -0 0 0 -0 -0 -0 -0 -0 -0 -0 -0 -0 -0 -0 0 1 1 2 1 2 2 2 2 2 3 2
0 0 0 0 0 0 0 -0 0 -0 -0 -0 -0 -0 0 -0 -0 -0 -0 0 0 1 1 1 2 2 3 3 3 3 4 3
Wind_Speed_500mb
4 2 9 9 4 25 21 13 11 7 3 4 3 8 7 11 40 61 65 62 58 53 47 42 39 37 35 33 31 30 29 28
4 9 3 7 23 25 17 6 16 11 9 2 8 6 7 17 38 55 61 62 59 54 48 42 40 38 35 33 29 29 30 29
3 9 9 10 23 25 18 4 5 14 3 4 9 9 7 19 32 48 56 61 58 53 47 42 41 40 37 33 31 31 32 31
4 10 10 16 15 19 21 7 2 7 7 3 10 15 14 27 34 42 52 57 57 52 47 43 40 40 38 35 33 31 31 30
5 16 13 6 16 24 22 10 6 6 3 5 16 23 18 30 36 38 54 57 56 53 49 44 40 40 39 36 32 30 29 30
6 7 11 11 28 27 14 11 8 6 7 1 10 29 26 34 37 42 52 55 56 55 51 48 44 42 39 36 32 30 30 30
8 7 7 16 16 18 18 17 10 10 11 13 6 28 35 40 40 47 52 56 56 55 54 50 47 45 41 38 36 33 33 32
7 8 17 30 15 29 10 13 14 15 31 26 18 32 42 46 46 51 53 55 57 56 54 52 51 48 46 44 42 40 37 34
16 25 25 16 19 7 9 13 24 17 24 33 24 40 45 49 46 41 43 53 53 54 54 52 51 50 50 48 46 43 40 37
14 12 12 14 13 13 20 29 29 20 24 29 33 46 44 50 51 50 50 45 52 53 51 50 51 52 51 51 47 45 44 41
26 31 27 20 27 22 36 34 32 31 31 34 42 47 42 46 50 52 52 53 49 50 49 51 54 54 53 51 50 48 46 44
21 16 13 12 19 3 24 34 38 34 39 39 46 51 46 51 56 58 53 56 55 53 53 55 54 55 54 53 52 51 49 45
3 8 5 8 3 6 32 22 19 31 31 36 47 51 57 48 48 55 50 51 57 54 56 56 54 53 54 54 53 53 51 47
10 21 4 8 16 9 26 12 18 26 24 34 48 49 53 56 52 50 56 55 53 57 60 59 57 54 54 53 53 52 53 52
14 9 11 11 17 34 25 12 17 24 29 37 40 51 61 60 57 55 52 57 60 59 60 56 57 55 55 55 54 52 54 55
11 11 12 14 25 24 24 17 17 21 24 36 43 53 59 68 68 61 60 59 61 65 65 63 68 66 63 63 60 58 59 61
9 5 8 12 17 22 28 28 22 22 20 29 43 49 52 59 66 72 71 73 68 70 65 71 72 69 77 74 68 68 68 64
14 6 6 16 13 16 27 25 20 16 21 29 43 56 60 56 61 68 73 80 78 78 68 72 62 44 85 84 72 73 74 71
10 13 5 20 7 20 24 20 33 42 38 34 33 38 37 52 54 53 64 72 74 79 78 71 69 77 79 83 84 82 82 80
10 11 7 14 6 15 19 22 27 44 50 53 42 39 34 26 21 39 43 46 54 64 76 76 69 73 75 81 85 86 85 82
Wind_Direction_500mb
38 79 12 342 276 312 312 281 233 293 264 301 302 287 270 191 172 174 178 177 179 178 179 180 186 185 183 182 182 180 178 177
332 333 274 287 332 336 334 136 199 244 259 259 280 291 213 182 174 173 180 181 182 181 183 184 190 190 189 188 185 183 184 184
4 295 285 286 305 328 336 262 214 204 178 225 220 195 210 199 179 181 184 185 186 185 187 190 193 193 194 192 191 190 189 191
313 290 301 294 314 340 340 267 276 192 243 223 205 189 189 182 184 188 190 190 190 189 192 196 198 198 198 197 196 196 195 196
218 285 295 278 330 344 333 302 286 191 285 231 211 189 188 184 194 194 190 193 194 195 196 202 204 203 203 203 202 202 202 203
208 248 293 304 322 327 300 326 268 237 255 125 223 200 190 190 195 195 193 199 198 198 201 205 208 208 209 209 209 209 212 212
234 217 299 308 319 320 293 280 256 226 244 248 315 207 187 192 195 194 199 203 204 203 205 208 211 211 212 216 216 216 219 219
211 235 285 300 279 310 291 281 261 230 251 250 253 214 193 197 196 198 204 206 207 208 209 210 212 214 216 219 221 223 225 225
265 251 272 274 284 246 270 266 259 268 250 244 228 208 199 204 201 197 200 209 209 211 211 213 215 218 221 223 226 228 231 233
275 275 275 277 289 254 238 254 289 289 271 254 226 206 205 211 209 208 207 204 212 214 217 218 219 224 227 229 231 234 236 236
276 289 279 273 267 277 274 277 274 263 253 256 239 215 214 219 215 214 216 216 215 216 220 223 225 227 229 234 237 239 241 242
291 296 274 284 312 272 315 306 247 252 250 247 235 223 214 221 221 219 221 223 221 223 224 226 229 233 235 238 240 243 245 246
145 319 295 337 254 241 330 307 258 243 244 232 232 227 221 226 225 226 222 226 228 230 234 235 237 239 241 243 245 247 248 248
6 344 51 330 352 318 326 308 273 273 259 241 237 237 236 229 233 234 235 230 231 233 239 241 243 244 247 249 249 251 249 249
324 360 316 358 347 340 358 359 292 278 263 254 250 251 254 246 232 236 238 243 238 236 239 243 244 249 249 250 250 250 247 247
285 334 324 318 340 356 359 331 304 305 273 257 259 268 264 263 253 236 240 239 243 243 241 243 244 245 246 246 246 246 246 247
294 290 300 334 331 14 18 8 338 314 298 274 266 269 269 264 262 256 242 243 238 242 241 243 244 251 254 249 248 250 250 251
286 273 272 345 340 342 5 17 13 352 331 310 299 281 267 266 264 261 260 251 247 245 245 246 242 235 254 255 258 258 258 258
315 325 137 330 82 10 8 21 32 34 16 360 337 323 305 267 268 268 265 265 255 257 256 250 250 248 256 255 259 261 262 263
304 307 19 353 70 36 342 341 19 14 7 3 357 9 4 350 302 272 279 281 272 262 257 261 256 258 262 264 265 268 266 268
Wind_Speed_850mb
4 2 9 9 4 25 21 13 11 7 3 4 3 8 7 11 40 61 65 62 58 53 47 42 39 37 35 33 31 30 29 28
4 9 3 7 23 25 17 6 16 11 9 2 8 6 7 17 38 55 61 62 59 54 48 42 40 38 35 33 29 29 30 29
3 9 9 10 23 25 18 4 5 14 3 4 9 9 7 19 32 48 56 61 58 53 47 42 41 40 37 33 31 31 32 31
4 10 10 16 15 19 21 7 2 7 7 3 10 15 14 27 34 42 52 57 57 52 47 43 40 40 38 35 33 31 31 30
5 16 13 6 16 24 22 10 6 6 3 5 16 23 18 30 36 38 54 57 56 53 49 44 40 40 39 36 32 30 29 30
6 7 11 11 28 27 14 11 8 6 7 1 10 29 26 34 37 42 52 55 56 55 51 48 44 42 39 36 32 30 30 30
8 7 7 16 16 18 18 17 10 10 11 13 6 28 35 40 40 47 52 56 56 55 54 50 47 45 41 38 36 33 33 32
7 8 17 30 15 29 10 13 14 15 31 26 18 32 42 46 46 51 53 55 57 56 54 52 51 48 46 44 42 40 37 34
16 25 25 16 19 7 9 13 24 17 24 33 24 40 45 49 46 41 43 53 53 54 54 52 51 50 50 48 46 43 40 37
14 12 12 14 13 13 20 29 29 20 24 29 33 46 44 50 51 50 50 45 52 53 51 50 51 52 51 51 47 45 44 41
26 31 27 20 27 22 36 34 32 31 31 34 42 47 42 46 50 52 52 53 49 50 49 51 54 54 53 51 50 48 46 44
21 16 13 12 19 3 24 34 38 34 39 39 46 51 46 51 56 58 53 56 55 53 53 55 54 55 54 53 52 51 49 45
3 8 5 8 3 6 32 22 19 31 31 36 47 51 57 48 48 55 50 51 57 54 56 56 54 53 54 54 53 53 51 47
10 21 4 8 16 9 26 12 18 26 24 34 48 49 53 56 52 50 56 55 53 57 60 59 57 54 54 53 53 52 53 52
14 9 11 11 17 34 25 12 17 24 29 37 40 51 61 60 57 55 52 57 60 59 60 56 57 55 55 55 54 52 54 55
11 11 12 14 25 24 24 17 17 21 24 36 43 53 59 68 68 61 60 59 61 65 65 63 68 66 63 63 60 58 59 61
9 5 8 12 17 22 28 28 22 22 20 29 43 49 52 59 66 72 71 73 68 70 65 71 72 69 77 74 68 68 68 64
14 6 6 16 13 16 27 25 20 16 21 29 43 56 60 56 61 68 73 80 78 78 68 72 62 44 85 84 72 73 74 71
10 13 5 20 7 20 24 20 33 42 38 34 33 38 37 52 54 53 64 72 74 79 78 71 69 77 79 83 84 82 82 80
10 11 7 14 6 15 19 22 27 44 50 53 42 39 34 26 21 39 43 46 54 64 76 76 69 73 75 81 85 86 85 82
Wind_Direction_850mb
38 79 12 342 276 312 312 281 233 293 264 301 302 287 270 191 172 174 178 177 179 178 179 180 186 185 183 182 182 180 178 177
332 333 274 287 332 336 334 136 199 244 259 259 280 291 213 182 174 173 180 181 182 181 183 184 190 190 189 188 185 183 184 184
4 295 285 286 305 328 336 262 214 204 178 225 220 195 210 199 179 181 184 185 186 185 187 190 193 193 194 192 191 190 189 191
313 290 301 294 314 340 340 267 276 192 243 223 205 189 189 182 184 188 190 190 190 189 192 196 198 198 198 197 196 196 195 196
218 285 295 278 330 344 333 302 286 191 285 231 211 189 188 184 194 194 190 193 194 195 196 202 204 203 203 203 202 202 202 203
208 248 293 304 322 327 300 326 268 237 255 125 223 200 190 190 195 195 193 199 198 198 201 205 208 208 209 209 209 209 212 212
234 217 299 308 319 320 293 280 256 226 244 248 315 207 187 192 195 194 199 203 204 203 205 208 211 211 212 216 216 216 219 219
211 235 285 300 279 310 291 281 261 230 251 250 253 214 193 197 196 198 204 206 207 208 209 210 212 214 216 219 221 223 225 225
265 251 272 274 284 246 270 266 259 268 250 244 228 208 199 204 201 197 200 209 209 211 211 213 215 218 221 223 226 228 231 233
275 275 275 277 289 254 238 254 289 289 271 254 226 206 205 211 209 208 207 204 212 214 217 218 219 224 227 229 231 234 236 236
276 289 279 273 267 277 274 277 274 263 253 256 239 215 214 219 215 214 216 216 215 216 220 223 225 227 229 234 237 239 241 242
291 296 274 284 312 272 315 306 247 252 250 247 235 223 214 221 221 219 221 223 221 223 224 226 229 233 235 238 240 243 245 246
145 319 295 337 254 241 330 307 258 243 244 232 232 227 221 226 225 226 222 226 228 230 234 235 237 239 241 243 245 247 248 248
6 344 51 330 352 318 326 308 273 273 259 241 237 237 236 229 233 234 235 230 231 233 239 241 243 244 247 249 249 251 249 249
324 360 316 358 347 340 358 359 292 278 263 254 250 251 254 246 232 236 238 243 238 236 239 243 244 249 249 250 250 250 247 247
285 334 324 318 340 356 359 331 304 305 273 257 259 268 264 263 253 236 240 239 243 243 241 243 244 245 246 246 246 246 246 247
294 290 300 334 331 14 18 8 338 314 298 274 266 269 269 264 262 256 242 243 238 242 241 243 244 251 254 249 248 250 250 251
286 273 272 345 340 342 5 17 13 352 331 310 299 281 267 266 264 261 260 251 247 245 245 246 242 235 254 255 258 258 258 258
315 325 137 330 82 10 8 21 32 34 16 360 337 323 305 267 268 268 265 265 255 257 256 250 250 248 256 255 259 261 262 263
304 307 19 353 70 36 342 341 19 14 7 3 357 9 4 350 302 272 279 281 272 262 257 261 256 258 262 264 265 268 266 268